Location: Milton Keynes
(52.0316°N, 0.7531°W)
Time: 21:40:03
(UTC+01:00)

ISS - Visible Passes

Search period start: 25 September 2020 00:00
Search period end: 05 October 2020 00:00
Orbit: 419 x 420 km, 51.6° (Epoch: 26 September)

Date Brightness Start Highest point End Pass type
(mag) Time Alt. Az. Time Alt. Az. Time Alt. Az.
25 Sep -3.8 19:56:20 10° WSW 19:59:43 78° S 20:02:08 18° E visible
25 Sep -2.1 21:33:07 10° W 21:35:06 32° W 21:35:06 32° W visible
26 Sep -3.9 20:45:44 10° W 20:49:08 83° S 20:49:28 69° ESE visible
27 Sep -3.8 19:58:20 10° W 20:01:44 86° S 20:03:50 21° E visible
27 Sep -1.6 21:35:10 10° W 21:36:47 25° W 21:36:47 25° W visible
28 Sep -3.7 20:47:45 10° W 20:51:06 63° SSW 20:51:09 63° S visible
29 Sep -3.7 20:00:19 10° W 20:03:42 75° SSW 20:05:30 25° ESE visible
29 Sep -1.2 21:37:16 10° W 21:38:28 18° WSW 21:38:28 18° WSW visible
30 Sep -3.7 19:12:53 10° W 19:16:17 83° S 19:19:40 10° E visible
30 Sep -2.8 20:49:45 10° W 20:52:51 38° SSW 20:52:51 38° SSW visible
01 Oct -3.2 20:02:16 10° W 20:05:34 50° SSW 20:07:15 24° SE visible
01 Oct -0.7 21:39:51 10° WSW 21:40:13 11° WSW 21:40:13 11° WSW visible
02 Oct -3.4 19:14:48 10° W 19:18:09 63° SSW 19:21:30 10° ESE visible
02 Oct -1.8 20:51:58 10° W 20:54:34 21° SW 20:54:40 21° SSW visible
03 Oct -2.1 20:04:18 10° W 20:07:15 28° SSW 20:09:10 17° SSE visible
04 Oct -2.5 19:16:44 10° W 19:19:54 38° SSW 19:23:03 10° SE visible
